[[[{"header":{"parameterUnit":"kt","parameterCategory":2,"dx":1,"dy":1,"la1":30.253999710083008,"la2":30.299108505249023,"lo1":-89.0895004272461,"lo2":-89.04439544677734,"nx":28,"ny":28,"refTime":"2022-10-29T21:00:00:Z","depth":0,"parameterNumber":1,"parameterNumberName":"U-component_of_WINDS"},"data":[1.7864,1.7929,1.7882,1.7936,1.7903,1.7932,1.7928,1.7918,1.7899,1.793,1.794,1.7901,1.7865,1.7868,1.7878,1.7861,1.7869,1.7926,1.7897,1.7683,1.765,1.7619,1.76,1.7928,1.7928,1.8124,1.8126,1.8128,1.771,1.7678,1.7693,1.7675,1.7687,1.7604,1.7584,1.7601,1.763,1.7607,1.7614,1.7639,1.7653,1.7597,1.7603,1.7635,1.7598,1.764,1.7638,1.7634,1.7403,1.7383,1.767,1.767,1.767,1.767,1.767,1.767,1.7419,1.746,1.7421,1.7436,1.7414,1.7404,1.7436,1.7386,1.7401,1.74,1.7342,1.7376,1.7345,1.7331,1.7315,1.7341,1.7285,1.7319,1.7327,1.7337,1.7355,1.7079,1.734,1.7339,1.7338,1.7337,1.7336,0,1.7191,1.7148,1.7158,1.7156,1.7164,1.7158,1.7144,1.7163,1.7059,1.7076,1.7097,1.7102,1.7113,1.7129,1.7125,1.7101,1.702,1.7006,1.7029,1.7058,1.7084,1.7072,1.6699,1.7,1.6996,1.6994,1.6993,1.6991,1.6894,1.6947,1.6884,1.6898,1.6878,1.6903,1.6908,1.6812,1.6822,1.6793,1.6835,1.6849,1.6855,1.69,1.6844,1.6852,1.6813,1.6933,1.6814,1.6839,1.6816,1.6814,1.682,1.6959,1.6963,1.6966,1.6969,0,1.6732,1.6653,1.6721,1.6653,1.6638,1.67,1.6642,1.668,1.6628,1.6673,1.6679,1.6598,1.6622,1.6545,1.6557,1.6517,1.6621,1.6582,1.663,1.6619,1.6719,1.6712,1.7056,1.7096,1.6754,1.6757,1.676,0,1.6448,1.6523,1.6402,1.6445,1.6525,1.6425,1.6507,1.6469,1.6439,1.6475,1.6367,1.6403,1.6298,1.6324,1.6264,1.6335,1.6338,1.6312,1.6295,1.6322,1.6326,1.6329,1.6314,1.6255,1.6253,1.6251,1.625,0,1.6204,1.6225,1.6295,1.6288,1.6224,1.6259,1.6235,1.62,1.6207,1.6203,1.6207,1.6211,1.6214,1.622,1.6143,1.6066,1.6228,1.6106,1.6202,1.6204,1.6243,1.6242,1.6564,1.6248,1.6247,1.6247,1.6246,0,1.5963,1.5958,1.6071,1.6015,1.6025,1.6072,1.6067,1.6089,1.6061,1.6025,1.6022,1.5941,1.5996,1.588,1.5954,1.5875,1.5885,1.5864,1.5869,1.5871,1.5744,1.5938,1.6251,1.6281,1.5871,1.5868,1.5865,0,1.5705,1.5797,1.5711,1.5821,1.5853,1.5728,1.5778,1.5756,1.5712,1.5734,1.5686,1.5713,1.561,1.5608,1.5655,1.5608,1.5711,1.5591,1.5629,1.5631,1.5641,1.5927,1.5993,1.619,1.5824,1.5828,1.5831,0,1.5495,1.5414,1.544,1.5427,1.5379,1.5406,1.5464,1.5467,1.5486,1.5473,1.552,1.5556,1.548,1.5478,1.5413,1.5466,1.5638,1.5378,1.5376,1.5429,1.5796,1.5859,1.5892,1.5583,1.5588,1.5592,1.5799,0,1.5152,1.5187,1.5252,1.5228,1.5236,1.53,1.5215,1.5234,1.517,1.5122,1.519,1.5153,1.5159,1.5176,1.5114,1.5259,1.5223,1.5143,1.5026,1.5214,1.528,1.5307,1.4934,1.493,1.4926,1.4924,0,0,1.4925,1.4974,1.4877,1.4928,1.4929,1.4798,1.4875,1.486,1.4836,1.484,1.4773,1.482,1.4794,1.4886,1.4938,1.494,1.4959,1.4897,1.5125,1.5147,1.5168,1.5241,1.527,1.4918,1.4917,1.4916,1.4914,0,1.4782,1.4752,1.4828,1.4807,1.4774,1.4719,1.4737,1.4682,1.4655,1.472,1.4614,1.4645,1.4685,1.4671,1.4669,1.4883,1.4802,1.4891,1.5034,1.5094,1.5121,1.5145,1.5222,1.5251,1.4906,1.4907,1.4907,0,1.4561,1.4518,1.4545,1.4538,1.4516,1.4552,1.4407,1.4452,1.4479,1.4337,1.4404,1.4373,1.4347,1.4444,1.4485,1.4426,1.4665,1.4575,1.4593,1.4597,1.4651,1.4684,1.4714,1.433,1.4328,1.4327,0,0,1.4449,1.4481,1.4406,1.4501,1.4494,1.4412,1.4423,1.436,1.4337,1.4329,1.4287,1.4271,1.4292,1.431,1.4326,1.4445,1.4433,1.4507,1.4534,1.4557,1.4573,1.4634,1.4666,1.432,1.432,1.432,0,0,1.4396,1.4312,1.4249,1.4349,1.433,1.4264,1.4327,1.425,1.4255,1.4238,1.4136,1.4127,1.4216,1.4191,1.4115,1.4283,1.4169,1.4185,1.4297,1.433,1.4357,1.4362,1.3964,0,0,0,0,0,1.4206,1.4321,1.4266,1.4269,1.4262,1.4294,1.4293,1.4209,1.4129,1.4181,1.4133,1.4045,1.4129,1.4059,1.4066,1.4152,1.4239,1.4253,1.4267,1.4438,1.4474,1.4504,0,0,0,0,0,0,1.4206,1.4211,1.4262,1.4203,1.42,1.4289,1.4136,1.4116,1.4121,1.4104,1.4057,1.4044,1.3975,1.405,1.4058,1.4141,1.3962,1.4244,1.4257,1.4268,1.445,1.4479,1.4504,0,0,0,0,0,1.4206,1.421,1.4219,1.42,1.4198,1.4114,1.4131,1.4113,1.4116,1.4043,1.4027,1.4052,1.3979,1.398,1.4054,1.414,1.3956,1.3959,1.4252,1.4262,1.4271,1.4465,0,0,0,0,0,0,1.4206,1.4195,1.4217,1.4213,1.415,1.4107,1.4097,1.4111,1.4053,1.4038,1.4032,1.4019,1.3984,1.3984,1.3985,1.4144,1.3951,1.3954,1.3956,1.426,1.4267,1.4274,0,0,0,0,0,0,1.4192,1.4193,1.4215,1.4156,1.4144,1.4102,1.4093,1.4144,1.4054,1.4045,1.4032,1.4027,1.3984,1.3987,1.3987,1.4071,1.3948,1.3951,1.3953,1.3954,1.4266,1.4272,0,0,0,0,0,0,1.4191,1.4191,1.4156,1.4148,1.4137,1.4089,1.4146,1.4143,1.4001,1.405,1.3986,1.3979,1.399,1.3988,1.399,1.4074,1.4072,1.3948,1.395,1.3951,1.3952,0,0,0,0,0,0,0,1.419,1.4207,1.4239,1.4141,1.4131,1.4179,1.4178,1.4177,1.3999,1.3994,1.3988,1.3982,1.3931,1.3934,1.3937,1.4077,0,0,1.3947,1.3949,0,0,0,0,0,0,0,0,1.4205,1.4206,1.4239,1.4238,1.4237,1.4179,1.4178,1.4177,1.3998,1.3994,1.3989,1.3984,1.3931,1.3934,1.3937,0,0,0,0,0,0,0,0,0,0,0,0,0,0,0,1.4239,1.4238,0,1.4178,1.4178,1.4177,1.3998,1.3994,1.399,1.3986,1.3932,1.3934,1.3937,0,0,0,0,0,0,0,0,0,0,0,0,0,0,0,0,0,0,0,0,0,0,0,0,0,0,0,0,0,0,0,0,0,0,0,0,0,0,0,0,0,0,0,0,0,0,0,0,0,0,0,0,0,0,0,0,0,0,0,0,0,0,0,0,0,0,0,0,0]}],[{"header":{"parameterUnit":"kt","parameterCategory":2,"dx":1,"dy":1,"la1":30.253999710083008,"la2":30.299108505249023,"lo1":-89.0895004272461,"lo2":-89.04439544677734,"nx":28,"ny":28,"refTime":"2022-10-29T21:00:00:Z","depth":0,"parameterNumber":2,"parameterNumberName":"V-component_of_WINDS"},"data":[-1.0356,-1.033,-1.0298,-1.0252,-1.0215,-1.0177,-1.0152,-1.0117,-1.008,-1.0028,-0.9992,-0.9954,-0.9902,-0.9848,-0.9806,-0.9789,-0.9773,-0.9788,-0.9766,-0.9731,-0.9724,-0.9717,-0.9723,-0.9785,-0.9785,-0.9807,-0.9807,-0.9807,-1.0333,-1.0297,-1.0264,-1.0209,-1.018,-1.0146,-1.0098,-1.0075,-1.0041,-0.9995,-0.9957,-0.9908,-0.9864,-0.9805,-0.9756,-0.974,-0.972,-0.9729,-0.9729,-0.9721,-0.9683,-0.9689,-0.9746,-0.9746,-0.9746,-0.9746,-0.9746,-0.9746,-1.0284,-1.027,-1.0218,-1.0181,-1.0144,-1.0107,-1.0086,-1.0041,-1.0006,-0.9953,-0.9919,-0.9878,-0.9824,-0.9747,-0.9712,-0.9678,-0.9661,-0.9659,-0.9659,-0.966,-0.9665,-0.964,-0.9667,-0.9667,-0.9667,-0.9667,-0.9666,0,-1.0237,-1.0211,-1.0177,-1.0133,-1.0104,-1.0065,-1.0024,-1.001,-0.994,-0.9914,-0.9872,-0.9842,-0.9781,-0.9736,-0.9682,-0.9645,-0.9604,-0.9596,-0.9595,-0.9612,-0.9634,-0.9622,-0.9562,-0.9596,-0.9595,-0.9594,-0.9594,-0.9594,-1.0185,-1.0172,-1.0101,-1.0082,-1.0051,-1.0019,-0.9993,-0.9933,-0.9907,-0.9846,-0.9834,-0.9789,-0.975,-0.9686,-0.9629,-0.9583,-0.9562,-0.9579,-0.9555,-0.9572,-0.9562,-0.9564,-0.9562,-0.9585,-0.9586,-0.9587,-0.9588,0,-1.0158,-1.0105,-1.0074,-1.0004,-0.9986,-0.9975,-0.9914,-0.9895,-0.9852,-0.9821,-0.9809,-0.9741,-0.97,-0.9641,-0.958,-0.955,-0.9527,-0.9508,-0.9546,-0.9539,-0.9548,-0.9548,-0.9587,-0.9589,-0.9523,-0.9524,-0.9525,0,-1.0092,-1.0077,-0.9998,-0.9983,-0.9963,-0.9903,-0.9884,-0.9846,-0.9799,-0.9773,-0.9719,-0.9695,-0.9623,-0.959,-0.9546,-0.9516,-0.9504,-0.9479,-0.9468,-0.9484,-0.9488,-0.9469,-0.9466,-0.9442,-0.9442,-0.9442,-0.9442,0,-1.0057,-0.9996,-0.9971,-0.9948,-0.9872,-0.9861,-0.9828,-0.9774,-0.9749,-0.9705,-0.9687,-0.964,-0.9614,-0.9578,-0.9522,-0.9508,-0.9484,-0.9452,-0.9458,-0.946,-0.9456,-0.9457,-0.9507,-0.9442,-0.9441,-0.9441,-0.9441,0,-0.9995,-0.9956,-0.9927,-0.9862,-0.9848,-0.9831,-0.9782,-0.9754,-0.9701,-0.9673,-0.9638,-0.9594,-0.9564,-0.9537,-0.9493,-0.9491,-0.9467,-0.9441,-0.944,-0.9434,-0.9405,-0.9442,-0.9495,-0.9499,-0.9428,-0.9427,-0.9427,0,-0.9969,-0.9926,-0.9875,-0.9849,-0.9821,-0.9763,-0.9741,-0.9697,-0.9658,-0.9626,-0.9581,-0.9545,-0.9513,-0.9493,-0.948,-0.9431,-0.9434,-0.9429,-0.9382,-0.9381,-0.9398,-0.9447,-0.947,-0.949,-0.9425,-0.9425,-0.9425,0,-0.9942,-0.9851,-0.985,-0.9821,-0.9755,-0.973,-0.9706,-0.9659,-0.9641,-0.9596,-0.9574,-0.9522,-0.9495,-0.9463,-0.9422,-0.9411,-0.943,-0.9383,-0.9381,-0.9394,-0.9419,-0.9441,-0.9445,-0.9405,-0.9405,-0.9405,-0.9424,0,-0.9861,-0.9833,-0.9828,-0.9767,-0.9739,-0.972,-0.9659,-0.9637,-0.9602,-0.9561,-0.9526,-0.9473,-0.9422,-0.9411,-0.9375,-0.9369,-0.936,-0.9332,-0.9302,-0.9334,-0.9338,-0.934,-0.93,-0.9299,-0.9298,-0.9297,0,0,-0.9849,-0.9808,-0.9752,-0.9728,-0.9701,-0.9641,-0.9625,-0.9591,-0.9525,-0.9507,-0.949,-0.9409,-0.9366,-0.933,-0.9336,-0.9315,-0.9308,-0.9299,-0.9319,-0.9322,-0.9324,-0.933,-0.9333,-0.9295,-0.9295,-0.9294,-0.9294,0,-0.9808,-0.9769,-0.9755,-0.9719,-0.9662,-0.962,-0.9617,-0.955,-0.9522,-0.9489,-0.9438,-0.941,-0.9347,-0.9308,-0.928,-0.9302,-0.9264,-0.9291,-0.9324,-0.9311,-0.9315,-0.9318,-0.9325,-0.9329,-0.9291,-0.9292,-0.9292,0,-0.977,-0.9722,-0.9709,-0.9647,-0.9609,-0.9581,-0.9535,-0.9508,-0.9486,-0.9419,-0.9387,-0.9349,-0.9291,-0.9266,-0.9252,-0.9235,-0.9229,-0.922,-0.9225,-0.9222,-0.9206,-0.9211,-0.9216,-0.9155,-0.9155,-0.9155,0,0,-0.9742,-0.9716,-0.9645,-0.9633,-0.9613,-0.955,-0.9529,-0.9491,-0.9443,-0.9424,-0.9374,-0.9328,-0.929,-0.9267,-0.9228,-0.9209,-0.9192,-0.9206,-0.9212,-0.9217,-0.9218,-0.9203,-0.9208,-0.9154,-0.9154,-0.9154,0,0,-0.9728,-0.9646,-0.962,-0.9599,-0.9556,-0.9484,-0.9478,-0.9443,-0.9403,-0.9399,-0.9332,-0.9317,-0.9292,-0.9256,-0.9253,-0.9216,-0.9187,-0.9187,-0.9241,-0.9248,-0.9254,-0.9263,-0.9196,0,0,0,0,0,-0.9655,-0.9656,-0.9633,-0.9621,-0.9541,-0.9497,-0.9486,-0.9433,-0.9414,-0.9411,-0.9363,-0.9325,-0.924,-0.9236,-0.9223,-0.9228,-0.9144,-0.9146,-0.9147,-0.9212,-0.922,-0.9227,0,0,0,0,0,0,-0.9649,-0.9634,-0.9633,-0.9563,-0.9544,-0.9497,-0.9453,-0.9438,-0.9413,-0.9406,-0.9335,-0.9323,-0.9275,-0.9238,-0.9228,-0.9233,-0.92,-0.9145,-0.9146,-0.9148,-0.9215,-0.9222,-0.9228,0,0,0,0,0,-0.9645,-0.9633,-0.9519,-0.9562,-0.9546,-0.9475,-0.9452,-0.9439,-0.9419,-0.9346,-0.9332,-0.9381,-0.9277,-0.9264,-0.9232,-0.9239,-0.9206,-0.9203,-0.9146,-0.9147,-0.9148,-0.9218,0,0,0,0,0,0,-0.9641,-0.962,-0.9514,-0.9507,-0.9558,-0.9477,-0.9462,-0.9441,-0.9359,-0.9346,-0.9388,-0.9384,-0.9278,-0.9268,-0.9258,-0.9245,-0.9212,-0.9208,-0.9206,-0.9147,-0.9147,-0.9148,0,0,0,0,0,0,-0.9626,-0.9615,-0.9511,-0.9508,-0.95,-0.9478,-0.9465,-0.943,-0.9359,-0.9405,-0.9399,-0.9387,-0.9291,-0.927,-0.9263,-0.921,-0.9216,-0.9213,-0.921,-0.9209,-0.9147,-0.9148,0,0,0,0,0,0,-0.962,-0.961,-0.951,-0.9504,-0.9497,-0.9414,-0.9446,-0.9366,-0.9359,-0.941,-0.9357,-0.9356,-0.9295,-0.9286,-0.9266,-0.9217,-0.9212,-0.9216,-0.9214,-0.9212,-0.9211,0,0,0,0,0,0,0,-0.9615,-0.9695,-0.9556,-0.95,-0.9494,-0.9442,-0.944,-0.9438,-0.9359,-0.9358,-0.9357,-0.9356,-0.9237,-0.9233,-0.9229,-0.9223,0,0,-0.9216,-0.9215,0,0,0,0,0,0,0,0,-0.9698,-0.9696,-0.9556,-0.9554,-0.9553,-0.9442,-0.944,-0.9439,-0.9359,-0.9358,-0.9357,-0.9357,-0.9236,-0.9232,-0.9229,0,0,0,0,0,0,0,0,0,0,0,0,0,0,0,-0.9556,-0.9555,0,-0.9442,-0.944,-0.9439,-0.9359,-0.9358,-0.9358,-0.9357,-0.9235,-0.9232,-0.9229,0,0,0,0,0,0,0,0,0,0,0,0,0,0,0,0,0,0,0,0,0,0,0,0,0,0,0,0,0,0,0,0,0,0,0,0,0,0,0,0,0,0,0,0,0,0,0,0,0,0,0,0,0,0,0,0,0,0,0,0,0,0,0,0,0,0,0,0,0]}]]]